This is the latest recevied weather packets stored in our database for station/object K4DNM. If no packets are shown the sender has not sent any weather packets the latest 10 day(s).
| Time | Temp. | Humidity | Pressure | Rain* | Wind** | Luminosity | Snow |
|---|---|---|---|---|---|---|---|
| 1778087886 | 25.56° C | 58% | 1013.2 hPa | 0 mm | - | 721 W/m² | - |
| 1778087588 | 25° C | 59% | 1013.3 hPa | 0 mm | - | 524 W/m² | - |
| 1778087286 | 25° C | 58% | 1013.4 hPa | 0 mm | - | 521 W/m² | - |
| 1778086987 | 25° C | 60% | 1013.5 hPa | 0 mm | - | 397 W/m² | - |
| 1778086687 | 24.44° C | 62% | 1013.5 hPa | 0 mm | - | 233 W/m² | - |
| 1778086387 | 24.44° C | 61% | 1013.4 hPa | 0 mm | - | 203 W/m² | - |
| 1778086085 | 24.44° C | 60% | 1013.5 hPa | 0 mm | - | 196 W/m² | - |
| 1778085784 | 24.44° C | 59% | 1013.6 hPa | 0 mm | - | 272 W/m² | - |
| 1778085484 | 24.44° C | 59% | 1013.6 hPa | 0 mm | - | 347 W/m² | - |
| 1778085245 | 24.44° C | 60% | 1013.6 hPa | 0 mm | - | 453 W/m² | - |
| 1778084884 | 24.44° C | 60% | 1013.6 hPa | 0 mm | - | 258 W/m² | - |
| 1778084584 | 23.89° C | 61% | 1013.6 hPa | 0 mm | - | 249 W/m² | - |
| 1778084314 | 23.89° C | 59% | 1013.6 hPa | 0 mm | - | 258 W/m² | - |
| 1778083984 | 23.89° C | 59% | 1013.5 hPa | 0 mm | - | 333 W/m² | - |
| 1778083684 | 23.89° C | 60% | 1013.5 hPa | 0 mm | - | 380 W/m² | - |
| 1778083383 | 23.89° C | 61% | 1013.7 hPa | 0 mm | - | 400 W/m² | - |
| 1778083092 | 23.33° C | 62% | 1013.4 hPa | 0 mm | - | 463 W/m² | - |
| 1778082777 | 22.78° C | 63% | 1013.4 hPa | 0 mm | - | 338 W/m² | - |
| 1778082476 | 22.78° C | 62% | 1013.4 hPa | 0 mm | - | 256 W/m² | - |
| 1778082236 | 22.78° C | 62% | 1013.5 hPa | 0 mm | - | 256 W/m² | - |
| 1778081876 | 22.78° C | 63% | 1013.3 hPa | 0 mm | - | 262 W/m² | - |
| 1778081578 | 22.78° C | 63% | 1013.5 hPa | 0 mm | - | 267 W/m² | - |
| 1778081277 | 22.78° C | 62% | 1013.6 hPa | 0 mm | - | 209 W/m² | - |
| 1778080977 | 22.78° C | 63% | 1013.5 hPa | 0 mm | - | 184 W/m² | - |
| 1778080678 | 22.78° C | 64% | 1013.8 hPa | 0 mm | - | 191 W/m² | - |
* Rain latest hour (hover to see other rain measurements)
** Current wind speed in m/s (hover to see current wind gust speed)